Toms River, NJ

4:47 PM EDT on October 19, 2019 (GMT -0400)
Miller

Weather History for KMJX - August, 2019

Change the Weather History Date:

Wednesday, August 14, 2019

  Actual Average Record
Temperature  
Mean Temperature 76 °F -  
Max Temperature 79 °F 82 °F 99 °F (2016)
Min Temperature 72 °F 61 °F 48 °F (1961)
Cooling Degree Days 11    
Growing Degree Days 26 (Base 50)    
Moisture  
Dew Point -    
Average Humidity    
Maximum Humidity    
Minimum Humidity    
Precipitation  
Precipitation 0.01 in - - ()
Sea Level Pressure  
Sea Level Pressure 29.83 in    
Wind  
Wind Speed 2 mph (ENE)    
Max Wind Speed 10 mph    
Max Gust Speed -    
Visibility 7 miles    
Events      
Averages and records for this station are not official NWS values.
T = Trace of Precipitation, MM = Missing Value Source: NWS Daily Summary

Daily Weather History Graph

Daily Weather History Graph

Search for Another Location

Airport or City:

Astronomy

Aug. 14, 2019 Rise Set
Actual Time 6:07 AM EDT 7:55 PM EDT
Civil Twilight 5:38 AM EDT 8:24 PM EDT
Nautical Twilight 5:03 AM EDT 8:59 PM EDT
Astronomical Twilight 4:25 AM EDT 9:37 PM EDT
Moon 7:47 PM EDT (8/14) 5:02 AM EDT (8/14)
Length of Visible Light 14h 45m
Length of Day
13h 47m
Waxing Gibbous, 99% of the Moon is Illuminated
Aug 14
Waxing Gibbous
Aug 15
Full
Aug 23
Last Quarter
Aug 30
New
Sep 5
First Quarter

Hourly Weather History & Observations

Time (EDT) Temp. Dew Point Humidity Pressure Visibility Wind Dir Wind Speed Gust Speed Precip Events Conditions
12:36 AM - - N/A% 29.79 in 3.0 mi Calm Calm - 0.00 in   Overcast
12:56 AM - - N/A% 29.79 in 4.0 mi Calm Calm - 0.00 in   Haze
1:52 AM - - N/A% 29.77 in 2.5 mi Calm Calm - N/A   Mostly Cloudy
1:56 AM - - N/A% 29.77 in 3.0 mi Calm Calm - N/A   Mostly Cloudy
2:56 AM - - N/A% - 4.0 mi Calm Calm - N/A   Haze
3:25 AM - - N/A% 29.77 in 2.5 mi Calm Calm - N/A   Overcast
3:38 AM - - N/A% 29.77 in 3.0 mi NE 3.5 mph - N/A   Overcast
3:56 AM - - N/A% 29.77 in 4.0 mi Calm Calm - N/A   Haze
4:56 AM - - N/A% 29.77 in 5.0 mi Calm Calm - N/A   Haze
5:19 AM - - N/A% - 4.0 mi Calm Calm - N/A   Haze
5:56 AM - - N/A% 29.78 in 4.0 mi Calm Calm - N/A   Haze
6:06 AM - - N/A% 29.78 in 2.0 mi Calm Calm - N/A   Partly Cloudy
6:20 AM - - N/A% 29.79 in 1.0 mi Calm Calm - N/A   Scattered Clouds
6:30 AM - - N/A% 29.79 in 2.0 mi Calm Calm - N/A   Mostly Cloudy
6:40 AM - - N/A% 29.80 in 4.0 mi Calm Calm - N/A   Haze
6:56 AM - - N/A% 29.80 in 3.0 mi Calm Calm - N/A   Overcast
7:19 AM - - N/A% 29.80 in 2.5 mi Calm Calm - N/A   Mostly Cloudy
7:32 AM - - N/A% 29.80 in 3.0 mi Calm Calm - N/A   Mostly Cloudy
7:56 AM - - N/A% 29.81 in 5.0 mi Calm Calm - 0.01 in   Haze
8:56 AM 77.0 °F - N/A% 29.81 in 10.0 mi ENE 4.6 mph - N/A   Scattered Clouds
9:15 AM 78.8 °F - N/A% 29.82 in 10.0 mi Calm Calm - N/A   Mostly Cloudy
9:56 AM 79.0 °F - N/A% 29.82 in 9.0 mi Variable 3.5 mph - N/A   Overcast
10:42 AM 78.8 °F - N/A% 29.82 in 2.5 mi East 4.6 mph - N/A   Overcast
10:52 AM 78.8 °F - N/A% 29.82 in 10.0 mi Variable 4.6 mph - N/A   Overcast
10:56 AM 79.0 °F - N/A% 29.82 in 10.0 mi ENE 5.8 mph - N/A   Overcast
11:31 AM 78.8 °F - N/A% 29.83 in 10.0 mi East 3.5 mph - 0.00 in   Overcast
11:42 AM 77.0 °F - N/A% 29.83 in 10.0 mi East 3.5 mph - 0.00 in   Overcast
11:56 AM 75.9 °F - N/A% 29.84 in 9.0 mi Calm Calm - 0.00 in   Overcast
12:16 PM 75.2 °F - N/A% 29.82 in 7.0 mi ENE 8.1 mph - N/A   Overcast
12:56 PM 77.0 °F - N/A% 29.83 in 10.0 mi ENE 8.1 mph - 0.00 in   Overcast
1:08 PM 75.2 °F - N/A% 29.84 in 10.0 mi East 3.5 mph - N/A   Overcast
1:56 PM 75.9 °F - N/A% 29.84 in 10.0 mi ENE 6.9 mph - N/A   Overcast
2:08 PM 77.0 °F - N/A% 29.83 in 10.0 mi ENE 5.8 mph - N/A   Overcast
2:41 PM 77.0 °F - N/A% 29.84 in 10.0 mi ENE 8.1 mph - N/A   Overcast
2:56 PM 75.9 °F - N/A% 29.84 in 10.0 mi ENE 6.9 mph - N/A   Overcast
3:30 PM 75.2 °F - N/A% 29.84 in 10.0 mi NE 8.1 mph - N/A   Overcast
3:56 PM 75.9 °F - N/A% 29.84 in 10.0 mi NE 10.4 mph - N/A   Overcast
4:56 PM 75.9 °F - N/A% 29.86 in 10.0 mi NE 5.8 mph - N/A   Overcast
5:02 PM 75.2 °F - N/A% 29.86 in 10.0 mi NE 6.9 mph - N/A   Overcast
5:19 PM 75.2 °F - N/A% 29.86 in 10.0 mi ENE 4.6 mph - N/A   Overcast
5:56 PM 75.0 °F - N/A% 29.86 in 10.0 mi East 3.5 mph - N/A   Overcast
6:24 PM 73.4 °F - N/A% 29.87 in 10.0 mi ENE 5.8 mph - N/A   Overcast
6:43 PM 73.4 °F - N/A% 29.87 in 10.0 mi ENE 3.5 mph - N/A   Overcast
6:56 PM 73.9 °F - N/A% 29.86 in 10.0 mi ENE 3.5 mph - N/A   Overcast
7:18 PM 73.4 °F - N/A% 29.86 in 10.0 mi ENE 5.8 mph - N/A   Mostly Cloudy
7:31 PM 73.4 °F - N/A% 29.86 in 10.0 mi ENE 3.5 mph - N/A   Scattered Clouds
7:56 PM 73.0 °F - N/A% 29.87 in 7.0 mi ENE 4.6 mph - N/A   Mostly Cloudy
8:56 PM 72.0 °F - N/A% 29.89 in 6.0 mi NE 4.6 mph - N/A   Haze
9:34 PM - - N/A% 29.91 in 7.0 mi North 5.8 mph - N/A   Mostly Cloudy
9:56 PM - - N/A% 29.92 in 5.0 mi North 4.6 mph - N/A   Haze
10:25 PM - - N/A% 29.92 in 5.0 mi Calm Calm - N/A   Haze
10:43 PM - - N/A% 29.92 in 4.0 mi Calm Calm - N/A   Haze
10:56 PM - - N/A% 29.93 in 4.0 mi Calm Calm - N/A   Haze
11:56 PM - - N/A% 29.93 in 4.0 mi North 4.6 mph - N/A   Haze